This is the latest recevied weather packets stored in our database for station/object OK1ALX-6. If no packets are shown the sender has not sent any weather packets the latest 10 day(s).
| Time | Temp. | Humidity | Pressure | Rain* | Wind** | Luminosity | Snow |
|---|---|---|---|---|---|---|---|
| 1788595203 | 17.78° C | 72% | 1024 hPa | 0 mm | - | 414 W/m² | - |
| 1788594605 | 17.78° C | 75% | 1024 hPa | 0 mm | - | 360 W/m² | - |
| 1788594003 | 17.22° C | 76% | 1023.9 hPa | 0 mm | - | 339 W/m² | - |
| 1788593403 | 17.22° C | 79% | 1024.2 hPa | 0 mm | - | 328 W/m² | - |
| 1788592819 | 16.67° C | 80% | 1023.8 hPa | 0 mm | - | 282 W/m² | - |
| 1788592203 | 16.11° C | 81% | 1024.1 hPa | 0 mm | - | 272 W/m² | - |
| 1788591603 | 16.11° C | 80% | 1024 hPa | 0 mm | - | 88 W/m² | - |
| 1788591003 | 15.56° C | 80% | 1024 hPa | 0 mm | - | 233 W/m² | - |
| 1788590403 | 15.56° C | 81% | 1024 hPa | 0 mm | - | 75 W/m² | - |
| 1788589803 | 15° C | 82% | 1024.2 hPa | 0 mm | - | 72 W/m² | - |
| 1788589203 | 15° C | 82% | 1024 hPa | 0.25 mm | - | 78 W/m² | - |
| 1788588603 | 15° C | 83% | 1023.8 hPa | 0.25 mm | - | 67 W/m² | - |
| 1788588003 | 15° C | 84% | 1023.7 hPa | 0.25 mm | - | 62 W/m² | - |
| 1788587403 | 15° C | 84% | 1023.7 hPa | 0.25 mm | - | 23 W/m² | - |
| 1788586803 | 15° C | 85% | 1023.5 hPa | 0.51 mm | - | 11 W/m² | - |
| 1788586203 | 15° C | 85% | 1023.4 hPa | 0.51 mm | - | 8 W/m² | - |
| 1788585603 | 15° C | 84% | 1023.5 hPa | 0.76 mm | - | 6 W/m² | - |
| 1788585003 | 15° C | 84% | 1023.3 hPa | 1.02 mm | - | 8 W/m² | - |
| 1788584403 | 15° C | 83% | 1023 hPa | 1.02 mm | - | 5 W/m² | - |
| 1788583803 | 15° C | 82% | 1022.9 hPa | 1.27 mm | - | 2 W/m² | - |
| 1788583203 | 15° C | 81% | 1023.3 hPa | 1.02 mm | - | 1 W/m² | - |
| 1788582603 | 15.56° C | 80% | 1023.1 hPa | 1.02 mm | - | 0 W/m² | - |
| 1788582003 | 15.56° C | 77% | 1023.1 hPa | 0.51 mm | - | 0 W/m² | - |
| 1788581403 | 16.11° C | 74% | 1023.4 hPa | 0.25 mm | - | 0 W/m² | - |
| 1788580803 | 16.11° C | 73% | 1023 hPa | 0.25 mm | - | 0 W/m² | - |
* Rain latest hour (hover to see other rain measurements)
** Current wind speed in m/s (hover to see current wind gust speed)